Change the Weather History Date:

Friday, October 12, 2012

  Actual Average (KHKY) Record (KHKY)
Temperature  
Mean Temperature 57 °F -  
Max Temperature 73 °F 71 °F 88 °F (1954)
Min Temperature 41 °F 49 °F 34 °F (1964)
Degree Days  
Heating Degree Days 8    
Growing Degree Days 7 (Base 50)    
Moisture  
Dew Point 46 °F    
Average Humidity 74    
Maximum Humidity 100    
Minimum Humidity 41    
Precipitation  
Precipitation 0.00 in - - ()
Sea Level Pressure  
Sea Level Pressure 30.23 in    
Wind  
Wind Speed 1 mph (NNW)    
Max Wind Speed 10 mph    
Max Gust Speed -    
Visibility 9 miles    
Events      
Averages and records for this station are not official NWS values.
T = Trace of Precipitation, MM = Missing Value Source: NWS Daily Summary

Daily Weather History Graph

Daily Weather History Graph

Search for Another Location

Airport or City:

Trip Planner

Search our weather history database for the weather conditions in past years. The results will help you decide how hot, cold, wet, or windy it might be!

Date:

Astronomy

Oct. 12, 2012 Rise Set
Actual Time 7:28 AM EDT 6:51 PM EDT
Civil Twilight 7:02 AM EDT 7:17 PM EDT
Nautical Twilight 6:32 AM EDT 7:46 PM EDT
Astronomical Twilight 6:03 AM EDT 8:16 PM EDT
Moon 4:15 AM EDT (10/12) 4:56 PM EDT (10/12)
Length of Visible Light 12h 14m
Length of Day
11h 23m
Waning Crescent, 11% of the Moon is Illuminated
Oct 12
Waning Crescent
Oct 15
New
Oct 21
First Quarter
Oct 29
Full
Nov 6
Last Quarter

Hourly Weather History & Observations

Time (EDT) Temp. Dew Point Humidity Pressure Visibility Wind Dir Wind Speed Gust Speed Precip Events Conditions
12:15 AM 46.4 °F 44.6 °F 93% 30.24 in 10.0 mi Calm Calm - N/A   Clear
12:35 AM 46.4 °F 44.6 °F 93% 30.24 in 10.0 mi Calm Calm - N/A   Clear
12:55 AM 44.6 °F 42.8 °F 93% 30.23 in 10.0 mi Calm Calm - N/A   Clear
1:15 AM 44.6 °F 42.8 °F 93% 30.23 in 10.0 mi Calm Calm - N/A   Clear
1:35 AM 44.6 °F 42.8 °F 93% 30.23 in 10.0 mi Calm Calm - N/A   Clear
2:15 AM 44.6 °F 42.8 °F 93% 30.22 in 7.0 mi Calm Calm - N/A   Clear
2:35 AM 44.6 °F 42.8 °F 93% 30.21 in 10.0 mi Calm Calm - N/A   Clear
2:55 AM 42.8 °F 42.8 °F 100% 30.21 in 7.0 mi Calm Calm - N/A   Clear
3:15 AM 44.6 °F 42.8 °F 93% 30.21 in 10.0 mi Calm Calm - N/A   Clear
3:35 AM 44.6 °F 42.8 °F 93% 30.20 in 10.0 mi Calm Calm - N/A   Clear
3:55 AM 42.8 °F 41.0 °F 93% 30.20 in 10.0 mi Calm Calm - N/A   Clear
4:15 AM 42.8 °F 41.0 °F 93% 30.19 in 5.0 mi Calm Calm - N/A   Clear
4:35 AM 42.8 °F 41.0 °F 93% 30.19 in 10.0 mi Calm Calm - N/A   Clear
4:55 AM 42.8 °F 41.0 °F 93% 30.19 in 7.0 mi Calm Calm - N/A   Clear
5:15 AM 42.8 °F 41.0 °F 93% 30.19 in 10.0 mi Calm Calm - N/A   Clear
5:35 AM 42.8 °F 41.0 °F 93% 30.20 in 7.0 mi Calm Calm - N/A   Clear
5:55 AM 42.8 °F 41.0 °F 93% 30.20 in 10.0 mi Calm Calm - N/A   Clear
6:15 AM 42.8 °F 41.0 °F 93% 30.20 in 7.0 mi Calm Calm - N/A   Clear
6:35 AM 42.8 °F 41.0 °F 93% 30.20 in 10.0 mi Calm Calm - N/A   Clear
6:55 AM 42.8 °F 41.0 °F 93% 30.21 in 7.0 mi Calm Calm - N/A   Clear
7:15 AM 42.8 °F 41.0 °F 93% 30.21 in 10.0 mi Calm Calm - N/A   Clear
7:35 AM 41.0 °F 41.0 °F 100% 30.22 in 3.0 mi Calm Calm - N/A   Clear
7:55 AM 41.0 °F 41.0 °F 100% 30.22 in 4.0 mi Calm Calm - N/A   Clear
8:15 AM 44.6 °F 42.8 °F 93% 30.23 in 7.0 mi Calm Calm - N/A   Clear
8:35 AM 46.4 °F 44.6 °F 93% 30.24 in 7.0 mi Calm Calm - N/A   Clear
9:15 AM 51.8 °F 46.4 °F 82% 30.26 in 10.0 mi Calm Calm - N/A   Clear
9:35 AM 53.6 °F 50.0 °F 88% 30.26 in 7.0 mi Calm Calm - N/A   Clear
10:35 AM 57.2 °F 50.0 °F 77% 30.25 in 10.0 mi Calm Calm - N/A   Clear
10:55 AM 59.0 °F 50.0 °F 72% 30.25 in 10.0 mi Calm Calm - N/A   Clear
11:15 AM 60.8 °F 46.4 °F 59% 30.24 in 10.0 mi Calm Calm - N/A   Clear
11:35 AM 60.8 °F 46.4 °F 59% 30.24 in 10.0 mi Calm Calm - N/A   Clear
12:15 PM 62.6 °F 48.2 °F 59% 30.24 in 10.0 mi Calm Calm - N/A   Clear
1:35 PM 69.8 °F 51.8 °F 53% 30.21 in 10.0 mi NNW 4.6 mph - N/A   Clear
1:55 PM 71.6 °F 50.0 °F 46% 30.20 in 10.0 mi NNW 10.4 mph - N/A   Clear
2:15 PM 71.6 °F 48.2 °F 43% 30.20 in 10.0 mi NW 5.8 mph - N/A   Clear
2:35 PM 71.6 °F 48.2 °F 43% 30.19 in 10.0 mi North 6.9 mph - N/A   Clear
3:15 PM 73.4 °F 48.2 °F 41% 30.19 in 10.0 mi NW 4.6 mph - N/A   Clear
3:35 PM 73.4 °F 48.2 °F 41% 30.20 in 10.0 mi NW 4.6 mph - N/A   Clear
3:55 PM 71.6 °F 48.2 °F 43% 30.20 in 10.0 mi WNW 5.8 mph - N/A   Scattered Clouds
4:15 PM 71.6 °F 48.2 °F 43% 30.20 in 10.0 mi NNW 4.6 mph - N/A   Overcast
4:35 PM 71.6 °F 50.0 °F 46% 30.20 in 10.0 mi WNW 3.5 mph - N/A   Overcast
4:55 PM 69.8 °F 50.0 °F 49% 30.20 in 10.0 mi Calm Calm - N/A   Overcast
5:15 PM 69.8 °F 46.4 °F 43% 30.20 in 10.0 mi Calm Calm - N/A   Mostly Cloudy
5:35 PM 69.8 °F 50.0 °F 49% 30.20 in 10.0 mi Calm Calm - N/A   Overcast
5:55 PM 69.8 °F 50.0 °F 49% 30.21 in 10.0 mi Calm Calm - N/A   Scattered Clouds
6:15 PM 64.4 °F 51.8 °F 64% 30.22 in 10.0 mi Calm Calm - N/A   Clear
6:35 PM 64.4 °F 50.0 °F 59% 30.23 in 10.0 mi West 3.5 mph - N/A   Clear
6:55 PM 64.4 °F 51.8 °F 64% 30.24 in 10.0 mi Calm Calm - N/A   Clear
7:15 PM 60.8 °F 51.8 °F 72% 30.24 in 10.0 mi Calm Calm - N/A   Clear
7:35 PM 59.0 °F 51.8 °F 77% 30.24 in 10.0 mi Calm Calm - N/A   Clear
7:55 PM 57.2 °F 51.8 °F 82% 30.25 in 10.0 mi Calm Calm - N/A   Clear
8:35 PM 60.8 °F 50.0 °F 68% 30.26 in 10.0 mi North 3.5 mph - N/A   Clear
8:55 PM 59.0 °F 50.0 °F 72% 30.27 in 10.0 mi Calm Calm - N/A   Clear
9:15 PM 59.0 °F 50.0 °F 72% 30.28 in 10.0 mi NNW 3.5 mph - N/A   Clear
9:35 PM 59.0 °F 50.0 °F 72% 30.29 in 10.0 mi NNW 3.5 mph - N/A   Clear
10:15 PM 59.0 °F 46.4 °F 63% 30.30 in 10.0 mi NNE 5.8 mph - N/A   Clear
10:35 PM 57.2 °F 46.4 °F 67% 30.31 in 10.0 mi North 3.5 mph - N/A   Clear
10:55 PM 57.2 °F 44.6 °F 63% 30.31 in 10.0 mi North 4.6 mph - N/A   Clear
11:15 PM 59.0 °F 42.8 °F 55% 30.31 in 10.0 mi North 8.1 mph - N/A   Clear
11:35 PM 55.4 °F 42.8 °F 63% 30.32 in 10.0 mi NE 3.5 mph - N/A   Clear
11:55 PM 55.4 °F 42.8 °F 63% 30.33 in 10.0 mi Calm Calm - N/A   Clear